Year,Month,Day,Hour,Minute,Value (Times are PST for temperature in C)
2015,05,20,00,00,18.30
2015,05,20,00,01,18.30
2015,05,20,00,02,18.20
2015,05,20,00,03,18.20
2015,05,20,00,04,18.10
2015,05,20,00,05,18.10
2015,05,20,00,06,18.10
2015,05,20,00,07,18.10
2015,05,20,00,08,18.10
2015,05,20,00,09,18.10
2015,05,20,00,10,18.20
2015,05,20,00,11,18.20
2015,05,20,00,12,18.30
2015,05,20,00,13,18.30
2015,05,20,00,14,18.30
2015,05,20,00,15,18.30
2015,05,20,00,16,18.30
2015,05,20,00,17,18.20
2015,05,20,00,18,18.20
2015,05,20,00,19,18.20
2015,05,20,00,20,18.20
2015,05,20,00,21,18.20
2015,05,20,00,22,18.20
2015,05,20,00,23,18.10
2015,05,20,00,24,18.10
2015,05,20,00,25,18.10
2015,05,20,00,26,18.10
2015,05,20,00,27,18.00
2015,05,20,00,28,18.00
2015,05,20,00,29,17.90
2015,05,20,00,30,17.90
2015,05,20,00,31,17.90
2015,05,20,00,32,17.80
2015,05,20,00,33,17.80
2015,05,20,00,34,17.80
2015,05,20,00,35,17.70
2015,05,20,00,36,17.70
2015,05,20,00,37,17.70
2015,05,20,00,38,17.70
2015,05,20,00,39,17.60
2015,05,20,00,40,17.60
2015,05,20,00,41,17.60
2015,05,20,00,42,17.60
2015,05,20,00,43,17.50
2015,05,20,00,44,17.50
2015,05,20,00,45,17.40
2015,05,20,00,46,17.40
2015,05,20,00,47,17.30
2015,05,20,00,48,17.30
2015,05,20,00,49,17.30
2015,05,20,00,50,17.20
2015,05,20,00,51,17.20
2015,05,20,00,52,17.20
2015,05,20,00,53,17.20
2015,05,20,00,54,17.20
2015,05,20,00,55,17.20
2015,05,20,00,56,17.20
2015,05,20,00,57,17.20
2015,05,20,00,58,17.20
2015,05,20,00,59,17.20
2015,05,20,01,00,17.20
2015,05,20,01,01,17.20
2015,05,20,01,02,17.20
2015,05,20,01,03,17.20
2015,05,20,01,04,17.30
2015,05,20,01,05,17.30
2015,05,20,01,06,17.30
2015,05,20,01,07,17.30
2015,05,20,01,08,17.30
2015,05,20,01,09,17.40
2015,05,20,01,10,17.40
2015,05,20,01,11,17.40
2015,05,20,01,12,17.40
2015,05,20,01,13,17.50
2015,05,20,01,14,17.50
2015,05,20,01,15,17.50
2015,05,20,01,16,17.50
2015,05,20,01,17,17.50
2015,05,20,01,18,17.50
2015,05,20,01,19,17.50
2015,05,20,01,20,17.60
2015,05,20,01,21,17.60
2015,05,20,01,22,17.60
2015,05,20,01,23,17.50
2015,05,20,01,24,17.50
2015,05,20,01,25,17.50
2015,05,20,01,26,17.50
2015,05,20,01,27,17.40
2015,05,20,01,28,17.40
2015,05,20,01,29,17.40
2015,05,20,01,30,17.40
2015,05,20,01,31,17.40
2015,05,20,01,32,17.30
2015,05,20,01,33,17.30
2015,05,20,01,34,17.30
2015,05,20,01,35,17.30
2015,05,20,01,36,17.20
2015,05,20,01,37,17.20
2015,05,20,01,38,17.20
2015,05,20,01,39,17.20
2015,05,20,01,40,17.20
2015,05,20,01,41,17.20
2015,05,20,01,42,17.20
2015,05,20,01,43,17.20
2015,05,20,01,44,17.20
2015,05,20,01,45,17.30
2015,05,20,01,46,17.20
2015,05,20,01,47,17.20
2015,05,20,01,48,17.20
2015,05,20,01,49,17.10
2015,05,20,01,50,17.10
2015,05,20,01,51,17.00
2015,05,20,01,52,17.00
2015,05,20,01,53,16.90
2015,05,20,01,54,16.90
2015,05,20,01,55,16.80
2015,05,20,01,56,16.80
2015,05,20,01,57,16.70
2015,05,20,01,58,16.70
2015,05,20,01,59,16.70
2015,05,20,02,00,16.70
2015,05,20,02,01,16.60
2015,05,20,02,02,16.60
2015,05,20,02,03,16.60
2015,05,20,02,04,16.50
2015,05,20,02,05,16.50
2015,05,20,02,06,16.40
2015,05,20,02,07,16.40
2015,05,20,02,08,16.40
2015,05,20,02,09,16.40
2015,05,20,02,10,16.40
2015,05,20,02,11,16.30
2015,05,20,02,12,16.30
2015,05,20,02,13,16.30
2015,05,20,02,14,16.30
2015,05,20,02,15,16.30
2015,05,20,02,16,16.20
2015,05,20,02,17,16.20
2015,05,20,02,18,16.20
2015,05,20,02,19,16.10
2015,05,20,02,20,16.10
2015,05,20,02,21,16.00
2015,05,20,02,22,15.90
2015,05,20,02,23,15.90
2015,05,20,02,24,15.80
2015,05,20,02,25,15.80
2015,05,20,02,26,15.80
2015,05,20,02,27,15.70
2015,05,20,02,28,15.70
2015,05,20,02,29,15.70
2015,05,20,02,30,15.70
2015,05,20,02,31,15.70
2015,05,20,02,32,15.70
2015,05,20,02,33,15.70
2015,05,20,02,34,15.70
2015,05,20,02,35,15.60
2015,05,20,02,36,15.60
2015,05,20,02,37,15.60
2015,05,20,02,38,15.60
2015,05,20,02,39,15.70
2015,05,20,02,40,15.90
2015,05,20,02,41,16.20
2015,05,20,02,42,16.40
2015,05,20,02,43,16.50
2015,05,20,02,44,16.60
2015,05,20,02,45,16.70
2015,05,20,02,46,16.70
2015,05,20,02,47,16.70
2015,05,20,02,48,16.70
2015,05,20,02,49,16.70
2015,05,20,02,50,16.80
2015,05,20,02,51,16.80
2015,05,20,02,52,16.80
2015,05,20,02,53,16.80
2015,05,20,02,54,16.80
2015,05,20,02,55,16.80
2015,05,20,02,56,16.80
2015,05,20,02,57,16.80
2015,05,20,02,58,16.70
2015,05,20,02,59,16.70
2015,05,20,03,00,16.70
2015,05,20,03,01,16.70
2015,05,20,03,02,16.70
2015,05,20,03,03,16.60
2015,05,20,03,04,16.60
2015,05,20,03,05,16.60
2015,05,20,03,06,16.60
2015,05,20,03,07,16.50
2015,05,20,03,08,16.50
2015,05,20,03,09,16.50
2015,05,20,03,10,16.40
2015,05,20,03,11,16.40
2015,05,20,03,12,16.40
2015,05,20,03,13,16.40
2015,05,20,03,14,16.40
2015,05,20,03,15,16.40
2015,05,20,03,16,16.40
2015,05,20,03,17,16.40
2015,05,20,03,18,16.40
2015,05,20,03,19,16.40
2015,05,20,03,20,16.50
2015,05,20,03,21,16.50
2015,05,20,03,22,16.60
2015,05,20,03,23,16.60
2015,05,20,03,24,16.60
2015,05,20,03,25,16.60
2015,05,20,03,26,16.60
2015,05,20,03,27,16.60
2015,05,20,03,28,16.60
2015,05,20,03,29,16.60
2015,05,20,03,30,16.60
2015,05,20,03,31,16.60
2015,05,20,03,32,16.60
2015,05,20,03,33,16.60
2015,05,20,03,34,16.60
2015,05,20,03,35,16.60
2015,05,20,03,36,16.70
2015,05,20,03,37,16.70
2015,05,20,03,38,16.70
2015,05,20,03,39,16.70
2015,05,20,03,40,16.70
2015,05,20,03,41,16.70
2015,05,20,03,42,16.70
2015,05,20,03,43,16.70
2015,05,20,03,44,16.70
2015,05,20,03,45,16.70
2015,05,20,03,46,16.70
2015,05,20,03,47,16.70
2015,05,20,03,48,16.70
2015,05,20,03,49,16.70
2015,05,20,03,50,16.70
2015,05,20,03,51,16.70
2015,05,20,03,52,16.70
2015,05,20,03,53,16.60
2015,05,20,03,54,16.60
2015,05,20,03,55,16.60
2015,05,20,03,56,16.60
2015,05,20,03,57,16.50
2015,05,20,03,58,16.50
2015,05,20,03,59,16.50
2015,05,20,04,00,16.50
2015,05,20,04,01,16.50
2015,05,20,04,02,16.50
2015,05,20,04,03,16.40
2015,05,20,04,04,16.40
2015,05,20,04,05,16.40
2015,05,20,04,06,16.30
2015,05,20,04,07,16.30
2015,05,20,04,08,16.30
2015,05,20,04,09,16.20
2015,05,20,04,10,16.20
2015,05,20,04,11,16.20
2015,05,20,04,12,16.20
2015,05,20,04,13,16.20
2015,05,20,04,14,16.20
2015,05,20,04,15,16.30
2015,05,20,04,16,16.30
2015,05,20,04,17,16.30
2015,05,20,04,18,16.30
2015,05,20,04,19,16.30
2015,05,20,04,20,16.30
2015,05,20,04,21,16.30
2015,05,20,04,22,16.30
2015,05,20,04,23,16.30
2015,05,20,04,24,16.30
2015,05,20,04,25,16.30
2015,05,20,04,26,16.30
2015,05,20,04,27,16.30
2015,05,20,04,28,16.30
2015,05,20,04,29,16.30
2015,05,20,04,30,16.30
2015,05,20,04,31,16.30
2015,05,20,04,32,16.30
2015,05,20,04,33,16.30
2015,05,20,04,34,16.30
2015,05,20,04,35,16.30
2015,05,20,04,36,16.30
2015,05,20,04,37,16.30
2015,05,20,04,38,16.30
2015,05,20,04,39,16.30
2015,05,20,04,40,16.30
2015,05,20,04,41,16.20
2015,05,20,04,42,16.20
2015,05,20,04,43,16.20
2015,05,20,04,44,16.20
2015,05,20,04,45,16.20
2015,05,20,04,46,16.20
2015,05,20,04,47,16.20
2015,05,20,04,48,16.20
2015,05,20,04,49,16.10
2015,05,20,04,50,16.20
2015,05,20,04,51,16.20
2015,05,20,04,52,16.20
2015,05,20,04,53,16.20
2015,05,20,04,54,16.10
2015,05,20,04,55,16.10
2015,05,20,04,56,16.00
2015,05,20,04,57,16.00
2015,05,20,04,58,16.00
2015,05,20,04,59,16.00
2015,05,20,05,00,16.00
2015,05,20,05,01,16.00
2015,05,20,05,02,15.90
2015,05,20,05,03,15.90
2015,05,20,05,04,15.90
2015,05,20,05,05,15.90
2015,05,20,05,06,15.80
2015,05,20,05,07,15.80
2015,05,20,05,08,15.80
2015,05,20,05,09,15.80
2015,05,20,05,10,15.80
2015,05,20,05,11,15.80
2015,05,20,05,12,15.80
2015,05,20,05,13,15.80
2015,05,20,05,14,15.80
2015,05,20,05,15,15.80
2015,05,20,05,16,15.80
2015,05,20,05,17,15.80
2015,05,20,05,18,15.80
2015,05,20,05,19,15.80
2015,05,20,05,20,15.80
2015,05,20,05,21,15.80
2015,05,20,05,22,15.70
2015,05,20,05,23,15.70
2015,05,20,05,24,15.70
2015,05,20,05,25,15.70
2015,05,20,05,26,15.70
2015,05,20,05,27,15.70
2015,05,20,05,28,15.70
2015,05,20,05,29,15.70
2015,05,20,05,30,15.70
2015,05,20,05,31,15.70
2015,05,20,05,32,15.70
2015,05,20,05,33,15.70
2015,05,20,05,34,15.70
2015,05,20,05,35,15.70
2015,05,20,05,36,15.70
2015,05,20,05,37,15.70
2015,05,20,05,38,15.70
2015,05,20,05,39,15.70
2015,05,20,05,40,15.70
2015,05,20,05,41,15.70
2015,05,20,05,42,15.70
2015,05,20,05,43,15.60
2015,05,20,05,44,15.60
2015,05,20,05,45,15.60
2015,05,20,05,46,15.60
2015,05,20,05,47,15.60
2015,05,20,05,48,15.60
2015,05,20,05,49,15.60
2015,05,20,05,50,15.60
2015,05,20,05,51,15.60
2015,05,20,05,52,15.60
2015,05,20,05,53,15.60
2015,05,20,05,54,15.60
2015,05,20,05,55,15.50
2015,05,20,05,56,15.50
2015,05,20,05,57,15.50
2015,05,20,05,58,15.50
2015,05,20,05,59,15.50
2015,05,20,06,00,15.50
2015,05,20,06,01,15.50
2015,05,20,06,02,15.50
2015,05,20,06,03,15.50
2015,05,20,06,04,15.60
2015,05,20,06,05,15.60
2015,05,20,06,06,15.60
2015,05,20,06,07,15.60
2015,05,20,06,08,15.60
2015,05,20,06,09,15.60
2015,05,20,06,10,15.60
2015,05,20,06,11,15.60
2015,05,20,06,12,15.60
2015,05,20,06,13,15.60
2015,05,20,06,14,15.60
2015,05,20,06,15,15.60
2015,05,20,06,16,15.60
2015,05,20,06,17,15.60
2015,05,20,06,18,15.60
2015,05,20,06,19,15.60
2015,05,20,06,20,15.60
2015,05,20,06,21,15.60
2015,05,20,06,22,15.70
2015,05,20,06,23,15.70
2015,05,20,06,24,15.70
2015,05,20,06,25,15.70
2015,05,20,06,26,15.70
2015,05,20,06,27,15.70
2015,05,20,06,28,15.70
2015,05,20,06,29,15.70
2015,05,20,06,30,15.70
2015,05,20,06,31,15.80
2015,05,20,06,32,15.80
2015,05,20,06,33,15.80
2015,05,20,06,34,15.80
2015,05,20,06,35,15.80
2015,05,20,06,36,15.80
2015,05,20,06,37,15.80
2015,05,20,06,38,15.80
2015,05,20,06,39,15.80
2015,05,20,06,40,15.80
2015,05,20,06,41,15.80
2015,05,20,06,42,15.80
2015,05,20,06,43,15.80
2015,05,20,06,44,15.80
2015,05,20,06,45,15.90
2015,05,20,06,46,15.90
2015,05,20,06,47,15.90
2015,05,20,06,48,15.90
2015,05,20,06,49,15.90
2015,05,20,06,50,15.90
2015,05,20,06,51,15.90
2015,05,20,06,52,16.00
2015,05,20,06,53,16.00
2015,05,20,06,54,16.00
2015,05,20,06,55,16.10
2015,05,20,06,56,16.10
2015,05,20,06,57,16.10
2015,05,20,06,58,16.10
2015,05,20,06,59,16.10
2015,05,20,07,00,16.10
2015,05,20,07,01,16.10
2015,05,20,07,02,16.10
2015,05,20,07,03,16.10
2015,05,20,07,04,16.10
2015,05,20,07,05,16.10
2015,05,20,07,06,16.10
2015,05,20,07,07,16.10
2015,05,20,07,08,16.10
2015,05,20,07,09,16.10
2015,05,20,07,10,16.10
2015,05,20,07,11,16.10
2015,05,20,07,12,16.10
2015,05,20,07,13,16.10
2015,05,20,07,14,16.10
2015,05,20,07,15,16.10
2015,05,20,07,16,16.10
2015,05,20,07,17,16.00
2015,05,20,07,18,16.00
2015,05,20,07,19,16.00
2015,05,20,07,20,16.00
2015,05,20,07,21,16.00
2015,05,20,07,22,16.00
2015,05,20,07,23,16.00
2015,05,20,07,24,16.00
2015,05,20,07,25,16.00
2015,05,20,07,26,15.90
2015,05,20,07,27,15.90
2015,05,20,07,28,15.90
2015,05,20,07,29,15.90
2015,05,20,07,30,15.80
2015,05,20,07,31,15.80
2015,05,20,07,32,15.80
2015,05,20,07,33,15.80
2015,05,20,07,34,15.80
2015,05,20,07,35,15.80
2015,05,20,07,36,15.80
2015,05,20,07,37,15.80
2015,05,20,07,38,15.90
2015,05,20,07,39,15.90
2015,05,20,07,40,15.90
2015,05,20,07,41,15.80
2015,05,20,07,42,15.80
2015,05,20,07,43,15.80
2015,05,20,07,44,15.90
2015,05,20,07,45,15.90
2015,05,20,07,46,15.90
2015,05,20,07,47,15.80
2015,05,20,07,48,15.90
2015,05,20,07,49,15.90
2015,05,20,07,50,15.90
2015,05,20,07,51,15.90
2015,05,20,07,52,15.90
2015,05,20,07,53,15.90
2015,05,20,07,54,16.00
2015,05,20,07,55,16.00
2015,05,20,07,56,16.10
2015,05,20,07,57,16.10
2015,05,20,07,58,16.10
2015,05,20,07,59,16.20
2015,05,20,08,00,16.10
2015,05,20,08,01,16.10
2015,05,20,08,02,16.10
2015,05,20,08,03,16.10
2015,05,20,08,04,16.00
2015,05,20,08,05,16.00
2015,05,20,08,06,15.90
2015,05,20,08,07,15.80
2015,05,20,08,08,15.70
2015,05,20,08,09,15.70
2015,05,20,08,10,15.60
2015,05,20,08,11,15.50
2015,05,20,08,12,15.50
2015,05,20,08,13,15.40
2015,05,20,08,14,15.40
2015,05,20,08,15,15.40
2015,05,20,08,16,15.40
2015,05,20,08,17,15.40
2015,05,20,08,18,15.40
2015,05,20,08,19,15.50
2015,05,20,08,20,15.50
2015,05,20,08,21,15.50
2015,05,20,08,22,15.50
2015,05,20,08,23,15.50
2015,05,20,08,24,15.40
2015,05,20,08,25,15.40
2015,05,20,08,26,15.40
2015,05,20,08,27,15.40
2015,05,20,08,28,15.40
2015,05,20,08,29,15.40
2015,05,20,08,30,15.50
2015,05,20,08,31,15.50
2015,05,20,08,32,15.60
2015,05,20,08,33,15.70
2015,05,20,08,34,15.70
2015,05,20,08,35,15.70
2015,05,20,08,36,15.70
2015,05,20,08,37,15.60
2015,05,20,08,38,15.60
2015,05,20,08,39,15.70
2015,05,20,08,40,15.70
2015,05,20,08,41,15.70
2015,05,20,08,42,15.70
2015,05,20,08,43,15.70
2015,05,20,08,44,15.70
2015,05,20,08,45,15.70
2015,05,20,08,46,15.70
2015,05,20,08,47,15.70
2015,05,20,08,48,15.80
2015,05,20,08,49,15.80
2015,05,20,08,50,15.70
2015,05,20,08,51,15.70
2015,05,20,08,52,15.60
2015,05,20,08,53,15.50
2015,05,20,08,54,15.50
2015,05,20,08,55,15.50
2015,05,20,08,56,15.40
2015,05,20,08,57,15.40
2015,05,20,08,58,15.40
2015,05,20,08,59,15.30
2015,05,20,09,00,15.30
2015,05,20,09,01,15.30
2015,05,20,09,02,15.30
2015,05,20,09,03,15.30
2015,05,20,09,04,15.30
2015,05,20,09,05,15.40
2015,05,20,09,06,15.40
2015,05,20,09,07,15.40
2015,05,20,09,08,15.40
2015,05,20,09,09,15.40
2015,05,20,09,10,15.40
2015,05,20,09,11,15.30
2015,05,20,09,12,15.30
2015,05,20,09,13,15.30
2015,05,20,09,14,15.20
2015,05,20,09,15,15.30
2015,05,20,09,16,15.30
2015,05,20,09,17,15.40
2015,05,20,09,18,15.40
2015,05,20,09,19,15.40
2015,05,20,09,20,15.50
2015,05,20,09,21,15.50
2015,05,20,09,22,15.50
2015,05,20,09,23,15.50
2015,05,20,09,24,15.50
2015,05,20,09,25,15.40
2015,05,20,09,26,15.40
2015,05,20,09,27,15.30
2015,05,20,09,28,15.30
2015,05,20,09,29,15.30
2015,05,20,09,30,15.30
2015,05,20,09,31,15.30
2015,05,20,09,32,15.30
2015,05,20,09,33,15.30
2015,05,20,09,34,15.40
2015,05,20,09,35,15.40
2015,05,20,09,36,15.50
2015,05,20,09,37,15.50
2015,05,20,09,38,15.50
2015,05,20,09,39,15.50
2015,05,20,09,40,15.50
2015,05,20,09,41,15.50
2015,05,20,09,42,15.50
2015,05,20,09,43,15.60
2015,05,20,09,44,15.60
2015,05,20,09,45,15.60
2015,05,20,09,46,15.60
2015,05,20,09,47,15.50
2015,05,20,09,48,15.60
2015,05,20,09,49,15.60
2015,05,20,09,50,15.70
2015,05,20,09,51,15.70
2015,05,20,09,52,15.70
2015,05,20,09,53,15.50
2015,05,20,09,54,15.50
2015,05,20,09,55,15.40
2015,05,20,09,56,15.40
2015,05,20,09,57,15.40
2015,05,20,09,58,15.50
2015,05,20,09,59,15.60
2015,05,20,10,00,15.60
2015,05,20,10,01,15.60
2015,05,20,10,02,15.60
2015,05,20,10,03,15.60
2015,05,20,10,04,15.60
2015,05,20,10,05,15.60
2015,05,20,10,06,15.60
2015,05,20,10,07,15.60
2015,05,20,10,08,15.50
2015,05,20,10,09,15.50
2015,05,20,10,10,15.50
2015,05,20,10,11,15.50
2015,05,20,10,12,15.50
2015,05,20,10,13,15.50
2015,05,20,10,14,15.50
2015,05,20,10,15,15.60
2015,05,20,10,16,15.60
2015,05,20,10,17,15.60
2015,05,20,10,18,15.60
2015,05,20,10,19,15.60
2015,05,20,10,20,15.60
2015,05,20,10,21,15.60
2015,05,20,10,22,15.70
2015,05,20,10,23,15.70
2015,05,20,10,24,15.70
2015,05,20,10,25,15.80
2015,05,20,10,26,15.80
2015,05,20,10,27,15.90
2015,05,20,10,28,15.90
2015,05,20,10,29,16.00
2015,05,20,10,30,16.10
2015,05,20,10,31,16.00
2015,05,20,10,32,16.00
2015,05,20,10,33,16.00
2015,05,20,10,34,16.10
2015,05,20,10,35,16.10
2015,05,20,10,36,16.10
2015,05,20,10,37,16.10
2015,05,20,10,38,16.10
2015,05,20,10,39,16.10
2015,05,20,10,40,16.10
2015,05,20,10,41,16.10
2015,05,20,10,42,16.10
2015,05,20,10,43,16.20
2015,05,20,10,44,16.30
2015,05,20,10,45,16.30
2015,05,20,10,46,16.20
2015,05,20,10,47,16.20
2015,05,20,10,48,16.30
2015,05,20,10,49,16.30
2015,05,20,10,50,16.30
2015,05,20,10,51,16.30
2015,05,20,10,52,16.30
2015,05,20,10,53,16.30
2015,05,20,10,54,16.30
2015,05,20,10,55,16.40
2015,05,20,10,56,16.40
2015,05,20,10,57,16.40
2015,05,20,10,58,16.40
2015,05,20,10,59,16.40
2015,05,20,11,00,16.40
2015,05,20,11,01,16.40
2015,05,20,11,02,16.50
2015,05,20,11,03,16.50
2015,05,20,11,04,16.40
2015,05,20,11,05,16.40
2015,05,20,11,06,16.50
2015,05,20,11,07,16.50
2015,05,20,11,08,16.50
2015,05,20,11,09,16.50
2015,05,20,11,10,16.60
2015,05,20,11,11,16.50
2015,05,20,11,12,16.40
2015,05,20,11,13,16.30
2015,05,20,11,14,16.30
2015,05,20,11,15,16.30
2015,05,20,11,16,16.30
2015,05,20,11,17,16.30
2015,05,20,11,18,16.30
2015,05,20,11,19,16.40
2015,05,20,11,20,16.40
2015,05,20,11,21,16.50
2015,05,20,11,22,16.60
2015,05,20,11,23,16.70
2015,05,20,11,24,16.70
2015,05,20,11,25,16.70
2015,05,20,11,26,16.70
2015,05,20,11,27,16.70
2015,05,20,11,28,16.80
2015,05,20,11,29,16.80
2015,05,20,11,30,16.80
2015,05,20,11,31,16.70
2015,05,20,11,32,16.60
2015,05,20,11,33,16.70
2015,05,20,11,34,16.70
2015,05,20,11,35,16.80
2015,05,20,11,36,16.80
2015,05,20,11,37,16.90
2015,05,20,11,38,16.90
2015,05,20,11,39,17.00
2015,05,20,11,40,17.00
2015,05,20,11,41,17.10
2015,05,20,11,42,17.20
2015,05,20,11,43,17.20
2015,05,20,11,44,17.20
2015,05,20,11,45,17.30
2015,05,20,11,46,17.30
2015,05,20,11,47,17.30
2015,05,20,11,48,17.30
2015,05,20,11,49,17.30
2015,05,20,11,50,17.30
2015,05,20,11,51,17.20
2015,05,20,11,52,17.20
2015,05,20,11,53,17.20
2015,05,20,11,54,17.20
2015,05,20,11,55,17.30
2015,05,20,11,56,17.30
2015,05,20,11,57,17.40
2015,05,20,11,58,17.40
2015,05,20,11,59,17.40
2015,05,20,12,00,17.50
2015,05,20,12,01,17.50
2015,05,20,12,02,17.60
2015,05,20,12,03,17.60
2015,05,20,12,04,17.60
2015,05,20,12,05,17.60
2015,05,20,12,06,17.70
2015,05,20,12,07,17.80
2015,05,20,12,08,17.90
2015,05,20,12,09,17.90
2015,05,20,12,10,18.00
2015,05,20,12,11,18.00
2015,05,20,12,12,17.90
2015,05,20,12,13,17.90
2015,05,20,12,14,17.90
2015,05,20,12,15,17.90
2015,05,20,12,16,17.90
2015,05,20,12,17,17.80
2015,05,20,12,18,17.80
2015,05,20,12,19,17.80
2015,05,20,12,20,17.80
2015,05,20,12,21,17.80
2015,05,20,12,22,17.80
2015,05,20,12,23,17.70
2015,05,20,12,24,17.80
2015,05,20,12,25,17.80
2015,05,20,12,26,17.90
2015,05,20,12,27,17.90
2015,05,20,12,28,17.90
2015,05,20,12,29,17.90
2015,05,20,12,30,18.00
2015,05,20,12,31,18.00
2015,05,20,12,32,18.10
2015,05,20,12,33,18.10
2015,05,20,12,34,18.20
2015,05,20,12,35,18.10
2015,05,20,12,36,18.10
2015,05,20,12,37,18.20
2015,05,20,12,38,18.20
2015,05,20,12,39,18.20
2015,05,20,12,40,18.20
2015,05,20,12,41,18.30
2015,05,20,12,42,18.40
2015,05,20,12,43,18.40
2015,05,20,12,44,18.40
2015,05,20,12,45,18.40
2015,05,20,12,46,18.30
2015,05,20,12,47,18.30
2015,05,20,12,48,18.30
2015,05,20,12,49,18.30
2015,05,20,12,50,18.30
2015,05,20,12,51,18.40
2015,05,20,12,52,18.40
2015,05,20,12,53,18.40
2015,05,20,12,54,18.40
2015,05,20,12,55,18.50
2015,05,20,12,56,18.50
2015,05,20,12,57,18.60
2015,05,20,12,58,18.60
2015,05,20,12,59,18.70
2015,05,20,13,00,18.70
2015,05,20,13,01,18.70
2015,05,20,13,02,18.70
2015,05,20,13,03,18.80
2015,05,20,13,04,18.90
2015,05,20,13,05,19.00
2015,05,20,13,06,19.10
2015,05,20,13,07,19.10
2015,05,20,13,08,19.20
2015,05,20,13,09,19.20
2015,05,20,13,10,19.20
2015,05,20,13,11,19.30
2015,05,20,13,12,19.30
2015,05,20,13,13,19.30
2015,05,20,13,14,19.20
2015,05,20,13,15,19.20
2015,05,20,13,16,19.30
2015,05,20,13,17,19.30
2015,05,20,13,18,19.40
2015,05,20,13,19,19.40
2015,05,20,13,20,19.30
2015,05,20,13,21,19.30
2015,05,20,13,22,19.20
2015,05,20,13,23,19.20
2015,05,20,13,24,19.10
2015,05,20,13,25,19.10
2015,05,20,13,26,19.00
2015,05,20,13,27,18.90
2015,05,20,13,28,18.90
2015,05,20,13,29,18.80
2015,05,20,13,30,18.70
2015,05,20,13,31,18.70
2015,05,20,13,32,18.70
2015,05,20,13,33,18.70
2015,05,20,13,34,18.70
2015,05,20,13,35,18.70
2015,05,20,13,36,18.80
2015,05,20,13,37,18.80
2015,05,20,13,38,18.80
2015,05,20,13,39,18.80
2015,05,20,13,40,18.90
2015,05,20,13,41,18.90
2015,05,20,13,42,18.90
2015,05,20,13,43,18.80
2015,05,20,13,44,18.80
2015,05,20,13,45,18.80
2015,05,20,13,46,18.80
2015,05,20,13,47,18.80
2015,05,20,13,48,18.70
2015,05,20,13,49,18.70
2015,05,20,13,50,18.80
2015,05,20,13,51,18.90
2015,05,20,13,52,18.90
2015,05,20,13,53,18.90
2015,05,20,13,54,18.90
2015,05,20,13,55,18.80
2015,05,20,13,56,18.80
2015,05,20,13,57,18.80
2015,05,20,13,58,18.90
2015,05,20,13,59,18.90
2015,05,20,14,00,18.90
2015,05,20,14,01,19.00
2015,05,20,14,02,19.10
2015,05,20,14,03,19.10
2015,05,20,14,04,19.20
2015,05,20,14,05,19.30
2015,05,20,14,06,19.40
2015,05,20,14,07,19.50
2015,05,20,14,08,19.60
2015,05,20,14,09,19.80
2015,05,20,14,10,19.80
2015,05,20,14,11,19.70
2015,05,20,14,12,19.70
2015,05,20,14,13,19.70
2015,05,20,14,14,19.70
2015,05,20,14,15,19.80
2015,05,20,14,16,19.80
2015,05,20,14,17,19.90
2015,05,20,14,18,19.90
2015,05,20,14,19,19.90
2015,05,20,14,20,19.90
2015,05,20,14,21,19.90
2015,05,20,14,22,20.00
2015,05,20,14,23,20.00
2015,05,20,14,24,20.00
2015,05,20,14,25,20.00
2015,05,20,14,26,19.90
2015,05,20,14,27,19.90
2015,05,20,14,28,19.90
2015,05,20,14,29,20.00
2015,05,20,14,30,20.10
2015,05,20,14,31,20.10
2015,05,20,14,32,20.10
2015,05,20,14,33,20.10
2015,05,20,14,34,20.10
2015,05,20,14,35,20.10
2015,05,20,14,36,20.20
2015,05,20,14,37,20.30
2015,05,20,14,38,20.30
2015,05,20,14,39,20.20
2015,05,20,14,40,20.20
2015,05,20,14,41,20.20
2015,05,20,14,42,20.10
2015,05,20,14,43,20.10
2015,05,20,14,44,20.20
2015,05,20,14,45,20.20
2015,05,20,14,46,20.20
2015,05,20,14,47,20.10
2015,05,20,14,48,20.10
2015,05,20,14,49,20.10
2015,05,20,14,50,20.20
2015,05,20,14,51,20.20
2015,05,20,14,52,20.30
2015,05,20,14,53,20.30
2015,05,20,14,54,20.30
2015,05,20,14,55,20.30
2015,05,20,14,56,20.30
2015,05,20,14,57,20.30
2015,05,20,14,58,20.30
2015,05,20,14,59,20.30
2015,05,20,15,00,20.40
2015,05,20,15,01,20.40
2015,05,20,15,02,20.30
2015,05,20,15,03,20.30
2015,05,20,15,04,20.40
2015,05,20,15,05,20.50
2015,05,20,15,06,20.50
2015,05,20,15,07,20.60
2015,05,20,15,08,20.60
2015,05,20,15,09,20.60
2015,05,20,15,10,20.60
2015,05,20,15,11,20.70
2015,05,20,15,12,20.70
2015,05,20,15,13,20.80
2015,05,20,15,14,20.80
2015,05,20,15,15,20.90
2015,05,20,15,16,21.00
2015,05,20,15,17,21.10
2015,05,20,15,18,21.10
2015,05,20,15,19,21.20
2015,05,20,15,20,21.30
2015,05,20,15,21,21.20
2015,05,20,15,22,21.20
2015,05,20,15,23,21.20
2015,05,20,15,24,21.20
2015,05,20,15,25,21.30
2015,05,20,15,26,21.30
2015,05,20,15,27,21.30
2015,05,20,15,28,21.40
2015,05,20,15,29,21.50
2015,05,20,15,30,21.50
2015,05,20,15,31,21.60
2015,05,20,15,32,21.60
2015,05,20,15,33,21.60
2015,05,20,15,34,21.60
2015,05,20,15,35,21.60
2015,05,20,15,36,21.50
2015,05,20,15,37,21.50
2015,05,20,15,38,21.50
2015,05,20,15,39,21.60
2015,05,20,15,40,21.60
2015,05,20,15,41,21.60
2015,05,20,15,42,21.70
2015,05,20,15,43,21.70
2015,05,20,15,44,21.80
2015,05,20,15,45,21.90
2015,05,20,15,46,21.90
2015,05,20,15,47,21.80
2015,05,20,15,48,21.90
2015,05,20,15,49,22.00
2015,05,20,15,50,22.00
2015,05,20,15,51,22.00
2015,05,20,15,52,22.00
2015,05,20,15,53,22.10
2015,05,20,15,54,22.10
2015,05,20,15,55,22.00
2015,05,20,15,56,22.00
2015,05,20,15,57,22.00
2015,05,20,15,58,22.00
2015,05,20,15,59,22.00
2015,05,20,16,00,22.00
2015,05,20,16,01,22.00
2015,05,20,16,02,22.00
2015,05,20,16,03,22.10
2015,05,20,16,04,22.10
2015,05,20,16,05,22.20
2015,05,20,16,06,22.10
2015,05,20,16,07,22.10
2015,05,20,16,08,22.20
2015,05,20,16,09,22.20
2015,05,20,16,10,22.30
2015,05,20,16,11,22.30
2015,05,20,16,12,22.30
2015,05,20,16,13,22.30
2015,05,20,16,14,22.30
2015,05,20,16,15,22.30
2015,05,20,16,16,22.40
2015,05,20,16,17,22.30
2015,05,20,16,18,22.30
2015,05,20,16,19,22.30
2015,05,20,16,20,22.40
2015,05,20,16,21,22.40
2015,05,20,16,22,22.40
2015,05,20,16,23,22.40
2015,05,20,16,24,22.30
2015,05,20,16,25,22.30
2015,05,20,16,26,22.30
2015,05,20,16,27,22.30
2015,05,20,16,28,22.30
2015,05,20,16,29,22.40
2015,05,20,16,30,22.40
2015,05,20,16,31,22.40
2015,05,20,16,32,22.50
2015,05,20,16,33,22.50
2015,05,20,16,34,22.50
2015,05,20,16,35,22.40
2015,05,20,16,36,22.40
2015,05,20,16,37,22.50
2015,05,20,16,38,22.60
2015,05,20,16,39,22.60
2015,05,20,16,40,22.60
2015,05,20,16,41,22.60
2015,05,20,16,42,22.60
2015,05,20,16,43,22.60
2015,05,20,16,44,22.60
2015,05,20,16,45,22.50
2015,05,20,16,46,22.50
2015,05,20,16,47,22.50
2015,05,20,16,48,22.60
2015,05,20,16,49,22.60
2015,05,20,16,50,22.60
2015,05,20,16,51,22.60
2015,05,20,16,52,22.50
2015,05,20,16,53,22.50
2015,05,20,16,54,22.40
2015,05,20,16,55,22.40
2015,05,20,16,56,22.50
2015,05,20,16,57,22.50
2015,05,20,16,58,22.60
2015,05,20,16,59,22.60
2015,05,20,17,00,22.60
2015,05,20,17,01,22.60
2015,05,20,17,02,22.70
2015,05,20,17,03,22.70
2015,05,20,17,04,22.70
2015,05,20,17,05,22.80
2015,05,20,17,06,22.80
2015,05,20,17,07,22.80
2015,05,20,17,08,22.80
2015,05,20,17,09,22.80
2015,05,20,17,10,22.80
2015,05,20,17,11,22.90
2015,05,20,17,12,22.90
2015,05,20,17,13,22.90
2015,05,20,17,14,22.90
2015,05,20,17,15,23.00
2015,05,20,17,16,23.00
2015,05,20,17,17,23.00
2015,05,20,17,18,22.90
2015,05,20,17,19,22.90